Regional Weather Roundup
Issued by NWS Charleston, SC

Current Version | Previous Version | Text Only | Print | Product List | Glossary Off
Versions: 1 2 3 4 5 6 7 8 9 10 11 12 13 14 15 16 17 18 19 20 21 22 23 24 25 26 27 28 29 30 31 32 33 34 35 36 37 38 39 40 41 42 43 44 45 46 47 48 49 50

000
ASUS42 KCHS 201139
RWRCHS

REGIONAL WEATHER ROUNDUP
NATIONAL WEATHER SERVICE CHARLESTON SC
700 AM EDT WED SEP 20 2017

NOTE: "FAIR" INDICATES FEW OR NO CLOUDS BELOW 12,000 FEET WITH NO
SIGNIFICANT WEATHER AND/OR OBSTRUCTIONS TO VISIBILITY.

NOT ALL STATIONS ARE QUALITY CONTROLLED. USE DATA WITH CAUTION...
ESPECIALLY DEWPOINT OBSERVATIONS.

SCZ027-030-031-034>040-042>050-201200-
...SOUTHEAST SOUTH CAROLINA...

CITY           SKY/WX    TMP DP  RH WIND       PRES   REMARKS
N CHARLESTON   MOCLDY    73  72  96 CALM      30.01R FOG
WATERFRONT PRK   N/A     76  74  93 CALM      29.84R
JOHNS ISLAND   FAIR      73  72  94 CALM      30.02R
PINOPOLIS        N/A     75  73  94 VRB3      29.93R
MONCKS CORNER  FAIR      68  66  94 CALM      30.02R FOG
SUMMERVILLE    PTSUNNY   68  68 100 CALM      30.03R FOG
BEAUFORT MCAS  MOCLDY    75  73  93 CALM      30.01R
BEAUFORT ARPT  FAIR      73  72  94 CALM      30.01R
HILTON HEAD IS MOCLDY    75  73  94 CALM      30.02R
WALTERBORO     PTSUNNY   68  68 100 CALM      30.03R
ALLENDALE      NOT AVBL

...SOUTHERN MIDLANDS AND PEE DEE...

CITY           SKY/WX    TMP DP  RH WIND       PRES   REMARKS
GEORGETOWN     FAIR      70  68  94 W3        30.03R FOG
KINGSTREE      FOG       63  63 100 CALM      30.02R VSB 1
ORANGEBURG     MOCLDY    68  67  96 CALM      30.02R FOG
BARNWELL       FAIR      70  70 100 CALM      30.02R
AIKEN          FAIR      64  64 100 CALM      30.05R
MANNING        FAIR      66  63  88 CALM      30.02R FOG
COLUMBIA       PTCLDY    68  64  87 CALM      30.00R
SUMTER         CLEAR     68  65  90 CALM      29.99R
FLORENCE       PTCLDY    65  65 100 CALM      30.01R
MYRTLE BEACH   NOT AVBL
N MYRTLE BEACH CLEAR     69  67  93 CALM      30.00R

$$

GAZ063-065-086>088-099>101-113>116-118-119-134>141-150-201200-
...SOUTHEAST GEORGIA...

CITY           SKY/WX    TMP DP  RH WIND       PRES   REMARKS
SAVANNAH ARPT  MOCLDY    74  71  91 SW6       30.02R
HUNTER AAF     PTCLDY    74  70  88 W5        29.99R
FORT STEWART   CLEAR     72  67  87 CALM      29.99R
STATESBORO     PTCLDY    70  70  99 CALM      30.01R
SYLVANIA       MOSUNNY   70  70 100 CALM      30.03R
CLAXTON        FAIR      70  70  98 CALM      30.02R FOG

...CSRA...CENTRAL AND FAR SOUTHEAST GEORGIA...

CITY           SKY/WX    TMP DP  RH WIND       PRES   REMARKS
THOMSON        CLEAR     67  65  94 CALM      30.07R
AUGUSTA-BUSH   PTCLDY    68  66  93 CALM      30.00R FOG
AUGUSTA-DANIEL CLEAR     72  69  90 SE3       30.01R
SWAINSBORO     PTSUNNY   72  72 100 CALM      30.03R
VIDALIA        CLOUDY    72  70  94 CALM      30.02R
EASTMAN        FAIR      69  69 100 CALM      30.04R FOG
HAZLEHURST     FAIR      74  70  87 S3        30.01R
ALMA           CLEAR     70  68  93 CALM      30.01R
WAYCROSS       CLEAR     71  68  90 CALM      30.02R
JESUP          NOT AVBL
BAXLEY         FAIR      70  70 100 CALM      30.01R
BRUNSWICK      PTCLDY    72  66  83 CALM      30.03R
SAINT SIMONS   MOCLDY    75  71  87 SW3       30.01R

$$

SCZ027-028-034-036>038-045-046-048>050-GAZ119-141-201200-
...LAKE AND SUPPLEMENTAL COASTAL OBSERVATIONS...

STATION/POSITION TIME  TEMP    WIND        PRES    WAVE   SWELL
                       AIR SEA DIR/SP/G            HT/PER HT/PER/DIR
                 (UTC) (F)     (DEG/KT/KT) (MB)    (FT/S) (FT/S/D)
WINYAH BAY       NOT AVBL
LAKE MURRAY      1120   73        CALM     1015.6
ACE BASIN NERRS  NOT AVBL
FORT PULASKI     1100   76 80  240/  2/  3 1016.7
SAPELO ISLAND    NOT AVBL

$$

ANZ835-935-AMZ111-154-330-350-352-354-370-450-454-472-201200-
...C-MAN AND BUOY OBSERVATIONS...

STATION/POSITION TIME  TEMP    WIND        PRES    WAVE   SWELL
                       AIR SEA DIR/SP/G            HT/PER HT/PER/DIR
                 (UTC) (F)     (DEG/KT/KT) (MB)    (FT/S) (FT/S/D)
BUOY 41004       1110   79 82  290/  8/ 10 1015.7
BUOY 41008       1050   79 80  270/  8/ 10 1015.8R   3/13   3/ 80/13
FOLLY BEACH CMAN 1100   76     270/  2/  3 1017.0R
CAPERS NEARSHORE 1108   75 80  270/  6/  8 1016.0R
FRIPP NEARSHORE  1108   78     270/  6/  8 1021.6F


STATION/POSITION TIME  TEMP    WIND        PRES    WAVE   SWELL
                       AIR SEA DIR/SP/G            HT/PER HT/PER/DIR
                 (UTC) (F)     (DEG/KT/KT) (MB)    (FT/S) (FT/S/D)
5E ST. MARYS GA  1100      81                N/A     3/13   2/ 80/13
FRYING PAN BUOY  1110   80 82  280/ 10/ 12 1015.6
BUOY 41025       1050   75 74  280/ 12/ 16 1013.6R   6/11   5/ 50/11
CAPE LOOKOUT NC  1100   74     280/  7/  8 1014.8R
BUOY 41002       1050   78 80  290/  6/  8 1015.5R   8/11   8/ 30/11
BUOY 41010       1110           10/  2/  6 1016.0
ST AUGUSTINE FL  1100   74 82  290/  5/  6 1016.5R


$$




USA.gov is the U.S. government's official web portal to all federal, state and local government web resources and services.